When you browse on this site, cookies collect data to enhance your experience and personalize the content and advertising you see.
Visit our Privacy Policy to learn more. By continuing to use the site, you agree to this use of cookies and data.
  • In Österreich
  • Länderverzeichnis
  • Für 7 Tage
  • Wassertemperatur
  • Wetterkarte
  • News
  • Widgets
  • user-avatar
    Anmelden

    Stündliche Wetter Mineral del Monte

    Heute, 23 August, Freitag

    Zeit Temperatur Niederschläge Wind Luftdruck Luftfeuchtigkeit
    00:00 +11°C° 0 mm 1 m/S 545 mmHg 88%
    01:00 +11°C° 0 mm 1 m/S 545 mmHg 90%
    02:00 +10°C° 0 mm 1 m/S 545 mmHg 91%
    03:00 +10°C° 0 mm 1 m/S 545 mmHg 91%
    04:00 +10°C° 0 mm 1 m/S 544 mmHg 91%
    05:00 +10°C° 0 mm 1 m/S 544 mmHg 91%
    06:00 +12°C° 0 mm 1 m/S 546 mmHg 84%
    07:00 +14°C° 0 mm 1 m/S 547 mmHg 77%
    08:00 +16°C° 0 mm 1 m/S 548 mmHg 70%
    09:00 +18°C° 0.3 mm 1 m/S 549 mmHg 65%
    10:00 +18°C° 0.3 mm 2 m/S 549 mmHg 60%
    11:00 +20°C° 0.3 mm 2 m/S 550 mmHg 55%
    12:00 +19°C° 1.6 mm 3 m/S 549 mmHg 59%
    13:00 +19°C° 1.6 mm 3 m/S 548 mmHg 63%
    14:00 +18°C° 1.6 mm 3 m/S 548 mmHg 67%
    15:00 +17°C° 1.5 mm 3 m/S 547 mmHg 72%
    16:00 +16°C° 1.5 mm 2 m/S 546 mmHg 76%
    17:00 +15°C° 1.5 mm 2 m/S 545 mmHg 81%
    18:00 +14°C° 0.7 mm 2 m/S 546 mmHg 83%
    19:00 +13°C° 0.7 mm 2 m/S 546 mmHg 86%
    20:00 +11°C° 0.7 mm 3 m/S 546 mmHg 89%
    21:00 +10°C° 0 mm 2 m/S 546 mmHg 88%
    22:00 +10°C° 0 mm 2 m/S 545 mmHg 88%
    23:00 +9°C° 0 mm 2 m/S 545 mmHg 88%

    Morgen, 24 August, Samstag

    Zeit Temperatur Niederschläge Wind Luftdruck Luftfeuchtigkeit
    00:00 +9°C° 0 mm 2 m/S 545 mmHg 87%
    01:00 +10°C° 0 mm 1 m/S 544 mmHg 85%
    02:00 +10°C° 0 mm 1 m/S 544 mmHg 84%
    03:00 +10°C° 0 mm 1 m/S 544 mmHg 83%
    04:00 +11°C° 0 mm 1 m/S 545 mmHg 83%
    05:00 +11°C° 0 mm 1 m/S 545 mmHg 82%
    06:00 +12°C° 0 mm 1 m/S 546 mmHg 77%
    07:00 +14°C° 0 mm 1 m/S 547 mmHg 72%
    08:00 +15°C° 0 mm 1 m/S 548 mmHg 66%
    09:00 +18°C° 0 mm 1 m/S 549 mmHg 60%
    10:00 +20°C° 0 mm 1 m/S 550 mmHg 54%
    11:00 +21°C° 0 mm 1 m/S 550 mmHg 48%
    12:00 +20°C° 0.6 mm 2 m/S 550 mmHg 51%
    13:00 +20°C° 0.6 mm 2 m/S 549 mmHg 53%
    14:00 +20°C° 0.6 mm 2 m/S 548 mmHg 56%
    15:00 +19°C° 1.5 mm 2 m/S 548 mmHg 63%
    16:00 +18°C° 1.5 mm 2 m/S 547 mmHg 69%
    17:00 +17°C° 1.5 mm 2 m/S 546 mmHg 75%
    18:00 +16°C° 1 mm 2 m/S 547 mmHg 77%
    19:00 +15°C° 1 mm 1 m/S 547 mmHg 79%
    20:00 +14°C° 1 mm 1 m/S 547 mmHg 81%
    21:00 +14°C° 0 mm 1 m/S 547 mmHg 82%
    22:00 +13°C° 0 mm 1 m/S 547 mmHg 82%
    23:00 +13°C° 0 mm 1 m/S 546 mmHg 83%

    übermorgen, 25 August, Sonntag

    Zeit Temperatur Niederschläge Wind Luftdruck Luftfeuchtigkeit
    00:00 +12°C° 0 mm 1 m/S 546 mmHg 84%
    01:00 +12°C° 0 mm 1 m/S 545 mmHg 85%
    02:00 +11°C° 0 mm 1 m/S 544 mmHg 86%
    03:00 +11°C° 0 mm 1 m/S 544 mmHg 86%
    04:00 +11°C° 0 mm 1 m/S 544 mmHg 86%
    05:00 +10°C° 0 mm 1 m/S 544 mmHg 86%
    06:00 +13°C° 0 mm 1 m/S 546 mmHg 79%
    07:00 +15°C° 0 mm 1 m/S 547 mmHg 71%
    08:00 +18°C° 0 mm 1 m/S 548 mmHg 64%
    09:00 +19°C° 0.1 mm 1 m/S 549 mmHg 59%
    10:00 +21°C° 0.1 mm 1 m/S 549 mmHg 53%
    11:00 +21°C° 0.1 mm 2 m/S 550 mmHg 48%
    12:00 +21°C° 1.6 mm 2 m/S 549 mmHg 53%
    13:00 +20°C° 1.6 mm 3 m/S 548 mmHg 58%
    14:00 +19°C° 1.6 mm 3 m/S 547 mmHg 62%
    15:00 +18°C° 2.3 mm 3 m/S 546 mmHg 69%
    16:00 +17°C° 2.3 mm 3 m/S 546 mmHg 75%
    17:00 +14°C° 2.3 mm 3 m/S 545 mmHg 82%
    18:00 +15°C° 0.3 mm 2 m/S 545 mmHg 81%
    19:00 +14°C° 0.3 mm 2 m/S 545 mmHg 79%
    20:00 +14°C° 0.3 mm 1 m/S 546 mmHg 78%
    21:00 +13°C° 0 mm 1 m/S 545 mmHg 79%
    22:00 +13°C° 0 mm 1 m/S 545 mmHg 79%
    23:00 +12°C° 0 mm 1 m/S 545 mmHg 80%

    26 August, Montag

    Zeit Temperatur Niederschläge Wind Luftdruck Luftfeuchtigkeit
    00:00 +12°C° 0 mm 1 m/S 545 mmHg 80%
    01:00 +12°C° 0 mm 1 m/S 544 mmHg 81%
    02:00 +11°C° 0 mm 0 m/S 544 mmHg 81%
    03:00 +11°C° 0 mm 0 m/S 544 mmHg 81%
    04:00 +11°C° 0 mm 0 m/S 544 mmHg 82%
    05:00 +10°C° 0 mm 0 m/S 544 mmHg 82%
    06:00 +12°C° 0 mm 0 m/S 545 mmHg 76%
    07:00 +14°C° 0 mm 0 m/S 546 mmHg 70%
    08:00 +15°C° 0 mm 0 m/S 547 mmHg 64%
    09:00 +19°C° 0.3 mm 1 m/S 548 mmHg 59%
    10:00 +20°C° 0.3 mm 1 m/S 548 mmHg 55%
    11:00 +22°C° 0.3 mm 1 m/S 549 mmHg 50%
    12:00 +21°C° 0.7 mm 1 m/S 548 mmHg 53%
    13:00 +20°C° 0.7 mm 2 m/S 547 mmHg 56%
    14:00 +20°C° 0.7 mm 3 m/S 547 mmHg 59%
    15:00 +19°C° 1.1 mm 3 m/S 546 mmHg 65%
    16:00 +17°C° 1.1 mm 2 m/S 546 mmHg 71%
    17:00 +16°C° 1.1 mm 2 m/S 545 mmHg 77%
    18:00 +15°C° 0.6 mm 2 m/S 545 mmHg 79%
    19:00 +14°C° 0.6 mm 2 m/S 545 mmHg 82%
    20:00 +12°C° 0.6 mm 1 m/S 545 mmHg 84%
    21:00 +12°C° 0 mm 1 m/S 545 mmHg 83%
    22:00 +11°C° 0 mm 1 m/S 544 mmHg 83%
    23:00 +10°C° 0 mm 0 m/S 544 mmHg 82%

    27 August, Dienstag

    Zeit Temperatur Niederschläge Wind Luftdruck Luftfeuchtigkeit
    00:00 +10°C° 0 mm 0 m/S 544 mmHg 82%
    01:00 +10°C° 0 mm 0 m/S 544 mmHg 82%
    02:00 +9°C° 0 mm 0 m/S 544 mmHg 83%
    03:00 +9°C° 0 mm 0 m/S 544 mmHg 83%
    04:00 +9°C° 0 mm 0 m/S 544 mmHg 83%
    05:00 +9°C° 0 mm 0 m/S 544 mmHg 83%
    06:00 +11°C° 0 mm 0 m/S 545 mmHg 76%
    07:00 +12°C° 0 mm 0 m/S 546 mmHg 70%
    08:00 +14°C° 0 mm 0 m/S 547 mmHg 64%
    09:00 +18°C° 0 mm 1 m/S 548 mmHg 59%
    10:00 +19°C° 0 mm 1 m/S 548 mmHg 54%
    11:00 +20°C° 0 mm 2 m/S 549 mmHg 49%
    12:00 +19°C° 0.7 mm 2 m/S 548 mmHg 54%
    13:00 +19°C° 0.7 mm 3 m/S 547 mmHg 59%
    14:00 +18°C° 0.7 mm 3 m/S 547 mmHg 64%
    15:00 +17°C° 1.4 mm 3 m/S 546 mmHg 69%
    16:00 +16°C° 1.4 mm 3 m/S 546 mmHg 74%
    17:00 +16°C° 1.4 mm 3 m/S 546 mmHg 79%
    18:00 +15°C° 0.6 mm 2 m/S 546 mmHg 82%
    19:00 +14°C° 0.6 mm 2 m/S 546 mmHg 85%
    20:00 +13°C° 0.6 mm 2 m/S 546 mmHg 89%
    21:00 +12°C° 0.5 mm 1 m/S 546 mmHg 88%
    22:00 +12°C° 0.5 mm 1 m/S 546 mmHg 88%
    23:00 +12°C° 0.5 mm 1 m/S 546 mmHg 87%

    28 August, Mittwoch

    Zeit Temperatur Niederschläge Wind Luftdruck Luftfeuchtigkeit
    00:00 +12°C° 0.2 mm 1 m/S 546 mmHg 86%
    01:00 +11°C° 0.2 mm 1 m/S 545 mmHg 86%
    02:00 +11°C° 0.2 mm 1 m/S 545 mmHg 85%
    03:00 +11°C° 0 mm 1 m/S 545 mmHg 85%
    04:00 +11°C° 0 mm 1 m/S 545 mmHg 85%
    05:00 +10°C° 0 mm 0 m/S 545 mmHg 84%
    06:00 +11°C° 0 mm 0 m/S 547 mmHg 79%
    07:00 +13°C° 0 mm 0 m/S 548 mmHg 73%
    08:00 +14°C° 0 mm 0 m/S 549 mmHg 67%
    09:00 +18°C° 0.1 mm 1 m/S 549 mmHg 61%
    10:00 +18°C° 0.1 mm 2 m/S 550 mmHg 56%
    11:00 +19°C° 0.1 mm 2 m/S 550 mmHg 50%
    12:00 +19°C° 0.7 mm 3 m/S 549 mmHg 54%
    13:00 +19°C° 0.7 mm 4 m/S 549 mmHg 59%
    14:00 +18°C° 0.7 mm 4 m/S 548 mmHg 63%
    15:00 +17°C° 0.7 mm 4 m/S 547 mmHg 68%
    16:00 +15°C° 0.7 mm 4 m/S 547 mmHg 72%
    17:00 +14°C° 0.7 mm 4 m/S 546 mmHg 77%
    18:00 +13°C° 0.2 mm 3 m/S 546 mmHg 82%
    19:00 +12°C° 0.2 mm 3 m/S 546 mmHg 87%
    20:00 +10°C° 0.2 mm 2 m/S 546 mmHg 92%
    21:00 +10°C° 0 mm 2 m/S 546 mmHg 92%
    22:00 +11°C° 0 mm 1 m/S 546 mmHg 93%
    23:00 +10°C° 0 mm 1 m/S 546 mmHg 93%
    Mehr zeigen